Camarillo, CA

6:55 PM PDT on July 27, 2016 (GMT -0700)
Camarillo

Weather History for KCMA - November, 2012

Change the Weather History Date:

Monday, November 5, 2012

  Actual Average Record
Temperature  
Mean Temperature 78 °F 61 °F  
Max Temperature 98 °F 72 °F 98 °F (1976)
Min Temperature 58 °F 50 °F 38 °F (1956)
Degree Days  
Heating Degree Days 0 5  
Month to date heating degree days 12 25  
Since 1 July heating degree days 87 148  
Cooling Degree Days 13 1  
Month to date cooling degree days 19 5  
Year to date cooling degree days 385 321  
Growing Degree Days 30 (Base 50)    
Moisture  
Dew Point 34 °F    
Average Humidity 26    
Maximum Humidity 43    
Minimum Humidity 8    
Precipitation  
Precipitation 0.00 in 0.04 in 0.91 in (1960)
Month to date precipitation 0.00 0.25  
Year to date precipitation 5.72 12.10  
Since 1 July precipitation 0.04  
Sea Level Pressure  
Sea Level Pressure 30.05 in    
Wind  
Wind Speed 8 mph (ENE)    
Max Wind Speed 22 mph    
Max Gust Speed 28 mph    
Visibility 10 miles    
Events      
T = Trace of Precipitation, MM = Missing Value Source: NWS Daily Summary

Daily Weather History Graph

Daily Weather History Graph

Search for Another Location

Airport or City:

Trip Planner

Search our weather history database for the weather conditions in past years. The results will help you decide how hot, cold, wet, or windy it might be!

Date:

Astronomy

Nov. 05, 2012 Rise Set
Actual Time 6:20 AM PST 4:59 PM PST
Civil Twilight 5:54 AM PST 5:25 PM PST
Nautical Twilight 5:24 AM PST 5:55 PM PST
Astronomical Twilight 4:54 AM PST 6:24 PM PST
Moon 10:41 PM PST (11/5) 11:42 AM PST (11/5)
Length of Visible Light 11h 31m
Length of Day
10h 38m
Waning Gibbous, 62% of the Moon is Illuminated
Nov 5
Waning Gibbous
Nov 6
Last Quarter
Nov 13
New
Nov 20
First Quarter
Nov 28
Full

Hourly Weather History & Observations

Time (PST) Temp. Dew Point Humidity Pressure Visibility Wind Dir Wind Speed Gust Speed Precip Events Conditions
12:55 AM 70.0 °F 28.0 °F 21% 30.06 in 10.0 mi NE 10.4 mph - N/A   Clear
1:55 AM 70.0 °F 28.0 °F 21% 30.06 in 10.0 mi NE 11.5 mph - N/A   Clear
2:55 AM 68.0 °F 28.0 °F 22% 30.04 in 10.0 mi NE 12.7 mph - N/A   Clear
4:55 AM 69.1 °F 27.0 °F 21% 30.06 in 10.0 mi NE 10.4 mph - N/A   Clear
5:55 AM 70.0 °F 26.1 °F 19% 30.06 in 10.0 mi NE 11.5 mph - N/A   Clear
6:55 AM 72.0 °F 27.0 °F 19% 30.08 in 10.0 mi ENE 10.4 mph - N/A   Clear
7:55 AM 79.0 °F 28.0 °F 15% 30.09 in 10.0 mi ENE 11.5 mph - N/A   Clear
8:55 AM 86.0 °F 28.9 °F 13% 30.09 in 10.0 mi ENE 9.2 mph - N/A   Clear
9:55 AM 93.0 °F 24.1 °F 8% 30.08 in 10.0 mi ENE 16.1 mph 23.0 mph N/A   Clear
10:55 AM 96.1 °F 24.1 °F 8% 30.06 in 10.0 mi ENE 16.1 mph 25.3 mph N/A   Clear
11:55 AM 97.0 °F 25.0 °F 8% 30.03 in 10.0 mi ENE 16.1 mph - N/A   Clear
12:55 PM 88.0 °F 44.1 °F 22% 30.01 in 10.0 mi WSW 9.2 mph - N/A   Clear
2:55 PM 82.0 °F 45.0 °F 27% 30.01 in 10.0 mi WSW 6.9 mph - N/A   Clear
3:55 PM 81.0 °F 43.0 °F 26% 30.01 in 10.0 mi SSW 4.6 mph - N/A   Clear
4:55 PM 77.0 °F 42.1 °F 29% 30.01 in 10.0 mi ESE 3.5 mph - N/A   Clear
5:55 PM 72.0 °F 42.1 °F 34% 30.03 in 10.0 mi Calm Calm - N/A   Clear
6:55 PM 68.0 °F 41.0 °F 37% 30.03 in 10.0 mi Calm Calm - N/A   Clear
7:55 PM 66.0 °F 41.0 °F 40% 30.04 in 10.0 mi NE 3.5 mph - N/A   Clear
8:55 PM 64.9 °F 41.0 °F 42% 30.05 in 10.0 mi ENE 5.8 mph - N/A   Clear
9:55 PM 62.1 °F 39.9 °F 44% 30.04 in 10.0 mi NE 4.6 mph - N/A   Clear
10:55 PM 63.0 °F 37.9 °F 40% 30.04 in 10.0 mi ENE 4.6 mph - N/A   Clear
11:55 PM 60.1 °F 39.0 °F 46% 30.04 in 10.0 mi North 3.5 mph - N/A   Clear